"Pseudo-MPEC" for C165DV5

Created 2025 Oct 24 15:35:05 UT using Find_Orb

Click here for an explanation of pseudo-MPECs

 
 Astrometry: 
     C165DV5* C2025 10 04.46812005 06 37.678+18 00 51.12   ~A4DK 22.42GVNEOCPV00
     C165DV5  C2025 10 04.47929605 06 36.659+18 00 41.26   ~A4DK       VNEOCPV00
     C165DV5  C2025 10 04.48488505 06 36.137+18 00 36.68   ~A4DK 22.92GVNEOCPV00

Station data:
(V00) Kitt Peak-Bok  (N31.963125 W111.600190)  US/Arizona. Measurers T.
   Beuden, V. F. Carvajal, D. Fay, J. B. Fazekas, D. C. Fuls, A. R. Gibbs, A.
   D. Grauer, H. Gröller, J. K. Hogan, R. A. Kowalski, S. M. Larson, G. J.
   Leonard, D. Rankin, R. L. Seaman, F. C. Shelly, K. W. Wierzchoś. 2.25-m
   reflector + 4x4K mosaic CCD.

Orbital elements:  C165DV5
   Perihelion 2025 Jun 17.149009 +/- 152 TT =  3:34:34.3 (JD 2460843.649009)
Epoch 2025 Oct  4.0 TT = JDT 2460952.5   Earth MOID: 0.1211   Ma: 0.0187
M  93.637175380 +/- 100             (J2000 ecliptic)             AutoNEOCP
n   0.860232641 +/- 0.688           Peri.   20.816147 +/- 70
a   1.094944494 +/- 0.584           Node   219.607378 +/- 60
e   0.84860534 +/- 0.197            Incl.   29.852717 +/- 60
P   1.146/418.484d         H 20.35  G  0.15   U 12.5  SR
q 0.165768744 +/- 0.784    Q 2.024120243 +/- 22
From 3 observations 2025 Oct. 4 (24.1 min); mean residual 0".09
Residuals in arcseconds: 
251004 V00  .02-  .05+    251004 V00  .07+  .15-    251004 V00  .05-  .10+    

Ephemerides (geocentric):
Date (UTC) HH   RA             Dec           delta  r     elong  mag " sig PA
---- --------  ------------   ------------  ------ ------ -----  --- --------
2025 10 24 16  04 23 18.897   +12 10 17.16  .92223 1.8232 144.0 22.4  59d 102
2025 10 24 17  04 23 12.002   +12 09 26.99  .92210 1.8234 144.1 22.4  59d 102
2025 10 24 18  04 23 05.102   +12 08 36.80  .92198 1.8236 144.1 22.4  59d 102
2025 10 24 19  04 22 58.197   +12 07 46.59  .92185 1.8239 144.2 22.4  59d 102
2025 10 24 20  04 22 51.287   +12 06 56.36  .92173 1.8241 144.3 22.4  59d 102
2025 10 24 21  04 22 44.372   +12 06 06.11  .92161 1.8243 144.3 22.4  59d 102
2025 10 24 22  04 22 37.452   +12 05 15.84  .92149 1.8245 144.4 22.4  59d 102
2025 10 24 23  04 22 30.528   +12 04 25.55  .92136 1.8247 144.5 22.4  59d 102
2025 10 25 00  04 22 23.598   +12 03 35.24  .92124 1.8249 144.5 22.4  59d 102
2025 10 25 01  04 22 16.663   +12 02 44.91  .92112 1.8252 144.6 22.4  59d 102
2025 10 25 02  04 22 09.723   +12 01 54.56  .92100 1.8254 144.7 22.4  59d 102
2025 10 25 03  04 22 02.778   +12 01 04.19  .92088 1.8256 144.8 22.4  59d 102
2025 10 25 04  04 21 55.829   +12 00 13.80  .92077 1.8258 144.8 22.4  59d 102
2025 10 25 05  04 21 48.874   +11 59 23.39  .92065 1.8260 144.9 22.4  59d 102
2025 10 25 06  04 21 41.915   +11 58 32.96  .92053 1.8262 145.0 22.4  59d 102
2025 10 25 07  04 21 34.951   +11 57 42.51  .92041 1.8264 145.0 22.4  59d 102
2025 10 25 08  04 21 27.982   +11 56 52.04  .92030 1.8267 145.1 22.4  59d 102
2025 10 25 09  04 21 21.008   +11 56 01.55  .92018 1.8269 145.2 22.4  59d 102
2025 10 25 10  04 21 14.029   +11 55 11.05  .92007 1.8271 145.2 22.4  59d 102
2025 10 25 11  04 21 07.046   +11 54 20.52  .91995 1.8273 145.3 22.4  59d 102
2025 10 25 12  04 21 00.058   +11 53 29.98  .91984 1.8275 145.4 22.4  59d 102
2025 10 25 13  04 20 53.064   +11 52 39.41  .91972 1.8277 145.4 22.4  59d 102
2025 10 25 14  04 20 46.067   +11 51 48.83  .91961 1.8279 145.5 22.4  59d 102
2025 10 25 15  04 20 39.064   +11 50 58.23  .91950 1.8282 145.6 22.4  59d 102
2025 10 25 16  04 20 32.057   +11 50 07.61  .91939 1.8284 145.6 22.4  59d 102
2025 10 25 17  04 20 25.045   +11 49 16.97  .91928 1.8286 145.7 22.4  59d 102
2025 10 25 18  04 20 18.028   +11 48 26.31  .91916 1.8288 145.8 22.4  59d 102
2025 10 25 19  04 20 11.007   +11 47 35.63  .91905 1.8290 145.8 22.4  60d 102
2025 10 25 20  04 20 03.980   +11 46 44.94  .91895 1.8292 145.9 22.4  60d 102
2025 10 25 21  04 19 56.950   +11 45 54.23  .91884 1.8294 146.0 22.4  60d 102
2025 10 25 22  04 19 49.914   +11 45 03.49  .91873 1.8297 146.0 22.4  60d 102
2025 10 25 23  04 19 42.874   +11 44 12.74  .91862 1.8299 146.1 22.4  60d 102
2025 10 26 00  04 19 35.829   +11 43 21.98  .91851 1.8301 146.2 22.4  60d 102
2025 10 26 01  04 19 28.780   +11 42 31.19  .91841 1.8303 146.2 22.4  60d 102
2025 10 26 02  04 19 21.726   +11 41 40.39  .91830 1.8305 146.3 22.4  60d 102
2025 10 26 03  04 19 14.668   +11 40 49.57  .91819 1.8307 146.4 22.4  60d 102
2025 10 26 04  04 19 07.604   +11 39 58.73  .91809 1.8309 146.4 22.4  60d 102
2025 10 26 05  04 19 00.537   +11 39 07.87  .91798 1.8311 146.5 22.4  60d 102
2025 10 26 06  04 18 53.465   +11 38 17.00  .91788 1.8314 146.6 22.4  60d 102
2025 10 26 07  04 18 46.388   +11 37 26.11  .91778 1.8316 146.6 22.4  60d 102
2025 10 26 08  04 18 39.307   +11 36 35.20  .91768 1.8318 146.7 22.4  60d 102
2025 10 26 09  04 18 32.221   +11 35 44.27  .91757 1.8320 146.8 22.4  60d 102
2025 10 26 10  04 18 25.131   +11 34 53.33  .91747 1.8322 146.8 22.4  60d 102
2025 10 26 11  04 18 18.036   +11 34 02.37  .91737 1.8324 146.9 22.4  60d 102
2025 10 26 12  04 18 10.937   +11 33 11.39  .91727 1.8326 147.0 22.4  60d 102
2025 10 26 13  04 18 03.833   +11 32 20.40  .91717 1.8328 147.0 22.4  60d 102
2025 10 26 14  04 17 56.725   +11 31 29.39  .91707 1.8330 147.1 22.4  60d 102
2025 10 26 15  04 17 49.612   +11 30 38.36  .91697 1.8333 147.2 22.4  60d 102